Tracking 29892 objects as of 21-Nov-2024
HD Live streaming from Space Station
objects crossing your sky now

OPS 4682 DEB

Track OPS 4682 DEB now!
10-day predictions


NORAD ID: 38385
Int'l Code: 1965-027CN
Perigee: 1,247.9 km
Apogee: 1,318.4 km
Inclination: 90.2 °
Period: 111.1 minutes
Semi major axis: 7654 km
RCS: 0.0101 m2 (small)
Launch date: April 3, 1965
Source: United States (US)
Launch site: AIR FORCE WESTERN TEST RANGE (AFWTR)

Note: This is SATELLITE DEBRIS
Your satellite tracking list
Your tracking list is empty




NASA's NSSDC Master Catalog

Two Line Element Set (TLE):
1 38385U 65027CN  24323.80664875  .00000193  00000-0  64622-3 0  9991
2 38385  90.2429 346.1627 0046098 145.6055 214.8064 12.96456000540891
Source of the keplerian elements: AFSPC